Change the Weather History Date:

Thursday, September 12, 2013

  Actual Average Record
Temperature  
Mean Temperature 72 °F -  
Max Temperature 80 °F 79 °F 96 °F (1990)
Min Temperature 66 °F 50 °F 35 °F (1949)
Cooling Degree Days 8    
Growing Degree Days 22 (Base 50)    
Moisture  
Dew Point 49 °F    
Average Humidity 47    
Maximum Humidity 60    
Minimum Humidity 31    
Precipitation  
Precipitation 0.00 in - - ()
Sea Level Pressure  
Sea Level Pressure 29.94 in    
Wind  
Wind Speed 8 mph (SSE)    
Max Wind Speed 24 mph    
Max Gust Speed 33 mph    
Visibility 10 miles    
Events Rain , Thunderstorm    
Averages and records for this station are not official NWS values.
T = Trace of Precipitation, MM = Missing Value Source: NWS Daily Summary

Daily Weather History Graph

Daily Weather History Graph

Search for Another Location

Airport or City:

Trip Planner

Search our weather history database for the weather conditions in past years. The results will help you decide how hot, cold, wet, or windy it might be!

Date:

Astronomy

Sep. 12, 2013 Rise Set
Actual Time 7:05 AM MDT 7:41 PM MDT
Civil Twilight 6:38 AM MDT 8:09 PM MDT
Nautical Twilight 6:05 AM MDT 8:42 PM MDT
Astronomical Twilight 5:31 AM MDT 9:15 PM MDT
Moon 2:40 PM MDT (9/12) No Moon Set
Length of Visible Light 13h 31m
Length of Day
12h 35m
Waxing Crescent, 51% of the Moon is Illuminated
Sep 12
Waxing Crescent
Sep 19
Full
Sep 26
Last Quarter
Oct 4
New
Oct 11
First Quarter

Hourly Weather History & Observations

Time (MDT) Temp. Dew Point Humidity Pressure Visibility Wind Dir Wind Speed Gust Speed Precip Events Conditions
12:53 AM 70.0 °F 51.1 °F 51% 29.93 in 10.0 mi South 5.8 mph - N/A   Mostly Cloudy
1:53 AM 69.1 °F 51.1 °F 53% 29.92 in 10.0 mi NE 10.4 mph - N/A   Clear
2:53 AM 66.9 °F 51.1 °F 57% 29.93 in 10.0 mi SW 8.1 mph - N/A   Partly Cloudy
3:53 AM 66.9 °F 51.1 °F 57% 29.92 in 10.0 mi Calm Calm - N/A   Clear
4:53 AM 68.0 °F 51.1 °F 55% 29.93 in 10.0 mi Calm Calm - N/A   Scattered Clouds
5:53 AM 68.0 °F 51.1 °F 55% 29.94 in 10.0 mi Variable 3.5 mph - N/A   Scattered Clouds
6:53 AM 69.1 °F 51.1 °F 53% 29.96 in 10.0 mi SSE 13.8 mph - N/A   Mostly Cloudy
7:00 AM 69.8 °F 51.8 °F 53% 30.12 in 10.0 mi SE 18.4 mph 24.2 mph N/A Thunderstorm Mostly Cloudy
7:23 AM 68.0 °F 53.6 °F 60% 30.12 in 10.0 mi East 10.4 mph - 0.00 in Rain Light Rain
7:53 AM 68.0 °F 52.0 °F 56% 29.96 in 10.0 mi NE 9.2 mph - 0.00 in   Mostly Cloudy
8:53 AM 71.1 °F 44.1 °F 38% 29.96 in 10.0 mi Calm Calm - N/A   Scattered Clouds
9:53 AM 71.1 °F 45.0 °F 39% 29.95 in 10.0 mi SSE 6.9 mph - N/A   Partly Cloudy
10:53 AM 72.0 °F 46.0 °F 40% 29.96 in 10.0 mi South 12.7 mph - N/A   Clear
11:53 AM 75.9 °F 46.0 °F 35% 29.95 in 10.0 mi South 6.9 mph - N/A   Scattered Clouds
12:53 PM 73.0 °F 52.0 °F 48% 29.97 in 10.0 mi South 24.2 mph 33.4 mph N/A   Mostly Cloudy
1:53 PM 70.0 °F 52.0 °F 53% 29.96 in 10.0 mi ESE 5.8 mph - N/A   Scattered Clouds
2:53 PM 78.1 °F 46.0 °F 32% 29.90 in 10.0 mi SSE 12.7 mph 25.3 mph N/A   Clear
3:53 PM 79.0 °F 46.0 °F 31% 29.89 in 10.0 mi SW 9.2 mph - N/A   Clear
4:53 PM 78.1 °F 45.0 °F 31% 29.87 in 10.0 mi WSW 5.8 mph - N/A   Clear
5:53 PM 77.0 °F 45.0 °F 32% 29.86 in 10.0 mi Variable 5.8 mph - N/A   Clear
6:53 PM 73.0 °F 46.9 °F 39% 29.88 in 10.0 mi West 9.2 mph - N/A   Scattered Clouds
7:53 PM 72.0 °F 48.9 °F 44% 29.90 in 10.0 mi SE 16.1 mph 19.6 mph N/A   Mostly Cloudy
8:53 PM 70.0 °F 48.9 °F 47% 29.90 in 10.0 mi NE 9.2 mph - N/A   Scattered Clouds
9:53 PM 69.1 °F 48.9 °F 49% 29.90 in 10.0 mi West 6.9 mph - N/A   Scattered Clouds
10:53 PM 69.1 °F 50.0 °F 51% 29.91 in 10.0 mi Variable 3.5 mph - N/A   Overcast
11:53 PM 66.9 °F 50.0 °F 54% 29.89 in 10.0 mi NNW 4.6 mph - N/A   Scattered Clouds